| time (UTC) | temp F | wind direction | speed MPH | gust MPH | rain 1hr in | rain 24hr in | rain mn in | humidity % | barometer mb |
| 20260904121346 | 78 | 134 | 3.0 | 8.0 | 0.00 | 0.00 | 0.00 | 91 | 1010.9 |
| 20260904115252 | 78 | 155 | 2.0 | 7.0 | 0.00 | 0.00 | 0.00 | 91 | 1010.6 |
| 20260904114233 | 78 | 164 | 3.0 | 9.0 | 0.00 | 0.00 | 0.00 | 91 | 1010.4 |
| 20260904113213 | 78 | 137 | 3.0 | 9.0 | 0.00 | 0.00 | 0.00 | 90 | 1010.4 |
| 20260904111042 | 78 | 88 | 2.0 | 7.0 | 0.00 | 0.00 | 0.00 | 90 | 1010.3 |
| 20260904110023 | 78 | 119 | 1.0 | 5.0 | 0.00 | 0.00 | 0.00 | 90 | 1010.2 |
| 20260904104950 | 79 | 149 | 2.0 | 9.0 | 0.00 | 0.00 | 0.00 | 89 | 1010.1 |
| 20260904103929 | 79 | 184 | 3.0 | 9.0 | 0.00 | 0.00 | 0.00 | 89 | 1009.7 |
| 20260904101713 | 79 | 191 | 2.0 | 7.0 | 0.00 | 0.00 | 0.00 | 89 | 1009.8 |
| 20260904100722 | 79 | 172 | 2.0 | 8.0 | 0.00 | 0.00 | 0.00 | 89 | 1010.0 |
| 20260904095648 | 79 | 182 | 1.0 | 9.0 | 0.00 | 0.00 | 0.00 | 88 | 1009.9 |
| 20260904093514 | 79 | 184 | 2.0 | 7.0 | 0.00 | 0.00 | 0.00 | 88 | 1009.6 |
| 20260904092500 | 79 | 193 | 3.0 | 7.0 | 0.00 | 0.00 | 0.00 | 88 | 1009.5 |
| 20260904091516 | 79 | 167 | 2.0 | 7.0 | 0.00 | 0.00 | 0.00 | 88 | 1009.7 |
| 20260904090506 | 79 | 188 | 2.0 | 7.0 | 0.00 | 0.00 | 0.00 | 88 | 1009.8 |
| 20260904085521 | 79 | 184 | 3.0 | 8.0 | 0.00 | 0.00 | 0.00 | 88 | 1009.8 |
| 20260904084518 | 79 | 192 | 4.0 | 9.0 | 0.00 | 0.00 | 0.00 | 87 | 1009.7 |
| 20260904083451 | 79 | 193 | 4.0 | 10.0 | 0.00 | 0.00 | 0.00 | 87 | 1009.7 |
| 20260904073856 | 80 | 172 | 4.0 | 13.0 | 0.00 | 0.00 | 0.00 | 85 | 1009.9 |
| 20260904072918 | 80 | 150 | 4.0 | 13.0 | 0.00 | 0.00 | 0.00 | 85 | 1009.9 |
| 20260904071902 | 80 | 189 | 4.0 | 13.0 | 0.00 | 0.00 | 0.00 | 85 | 1010.0 |
| 20260904070830 | 80 | 208 | 4.0 | 11.0 | 0.00 | 0.00 | 0.00 | 85 | 1010.1 |
| 20260904064711 | 80 | 157 | 6.0 | 15.0 | 0.00 | 0.00 | 0.00 | 84 | 1010.1 |
| 20260904063656 | 80 | 174 | 4.0 | 15.0 | 0.00 | 0.00 | 0.00 | 83 | 1010.1 |
| 20260904062647 | 80 | 159 | 5.0 | 13.0 | 0.00 | 0.00 | 0.00 | 83 | 1010.1 |
| 20260904060537 | 80 | 144 | 5.0 | 11.0 | 0.00 | 0.00 | 0.00 | 82 | 1010.1 |
| 20260904055515 | 80 | 194 | 4.0 | 10.0 | 0.00 | 0.00 | 0.00 | 81 | 1010.2 |
| 20260904054537 | 80 | 178 | 4.0 | 10.0 | 0.00 | 0.00 | 0.00 | 81 | 1010.2 |
| 20260904053517 | 80 | 165 | 3.0 | 9.0 | 0.00 | 0.00 | 0.00 | 81 | 1010.1 |
| 20260904051341 | 80 | 162 | 5.0 | 13.0 | 0.00 | 0.00 | 0.00 | 80 | 1009.9 |
| 20260904050326 | 80 | 174 | 3.0 | 10.0 | 0.00 | 0.00 | 0.00 | 80 | 1009.8 |
| 20260904044211 | 80 | 170 | 3.0 | 11.0 | 0.00 | 0.00 | 0.00 | 79 | 1009.9 |
| 20260904043200 | 81 | 157 | 4.0 | 11.0 | 0.00 | 0.00 | 0.00 | 78 | 1009.9 |
| 20260904041235 | 81 | 204 | 5.0 | 16.0 | 0.00 | 0.00 | 0.00 | 77 | 1009.8 |
| 20260904040200 | 81 | 142 | 5.0 | 16.0 | 0.00 | 0.00 | 0.00 | 76 | 1009.8 |
| 20260904032821 | 82 | 144 | 4.0 | 13.0 | 0.00 | 0.00 | 0.00 | 75 | 1009.6 |
| 20260904031747 | 82 | 153 | 4.0 | 13.0 | 0.00 | 0.00 | 0.00 | 74 | 1009.5 |
| 20260904030733 | 83 | 138 | 4.0 | 11.0 | 0.00 | 0.00 | 0.00 | 72 | 1009.4 |
| 20260904025754 | 83 | 170 | 5.0 | 15.0 | 0.00 | 0.00 | 0.00 | 71 | 1009.3 |
| 20260904024744 | 83 | 188 | 6.0 | 15.0 | 0.00 | 0.00 | 0.00 | 71 | 1009.2 |
| 20260904023750 | 83 | 155 | 5.0 | 14.0 | 0.00 | 0.00 | 0.00 | 72 | 1009.1 |
| 20260904022731 | 83 | 165 | 4.0 | 10.0 | 0.00 | 0.00 | 0.00 | 72 | 1009.1 |
| 20260904020619 | 83 | 131 | 3.0 | 10.0 | 0.00 | 0.00 | 0.00 | 72 | 1008.8 |
| 20260904015602 | 84 | 177 | 4.0 | 11.0 | 0.00 | 0.00 | 0.00 | 71 | 1008.5 |
| 20260904013442 | 84 | 162 | 5.0 | 12.0 | 0.00 | 0.00 | 0.00 | 70 | 1008.4 |
| 20260904012438 | 85 | 98 | 6.0 | 12.0 | 0.00 | 0.00 | 0.00 | 69 | 1008.4 |
| 20260904010325 | 86 | 150 | 5.0 | 16.0 | 0.00 | 0.00 | 0.00 | 66 | 1008.2 |
| 20260904005308 | 86 | 154 | 6.0 | 16.0 | 0.00 | 0.00 | 0.00 | 65 | 1008.1 |
| 20260904004241 | 87 | 101 | 6.0 | 18.0 | 0.00 | 0.00 | 0.00 | 64 | 1008.2 |
| 20260904003255 | 87 | 153 | 6.0 | 18.0 | 0.00 | 0.00 | 0.00 | 63 | 1008.2 |
| 20260904002228 | 87 | 155 | 4.0 | 12.0 | 0.00 | 0.00 | 0.00 | 62 | 1008.1 |
| 20260904001228 | 88 | 161 | 5.0 | 14.0 | 0.00 | 0.00 | 0.00 | 62 | 1008.1 |
| 20260903235052 | 88 | 151 | 6.0 | 14.0 | 0.00 | 0.00 | 0.00 | 62 | 1007.9 |
| 20260903234050 | 89 | 137 | 7.0 | 14.0 | 0.00 | 0.00 | 0.00 | 60 | 1007.9 |
| 20260903233022 | 90 | 121 | 6.0 | 18.0 | 0.00 | 0.00 | 0.00 | 60 | 1007.8 |
| 20260903230819 | 92 | 111 | 9.0 | 19.0 | 0.00 | 0.00 | 0.00 | 56 | 1007.7 |
| 20260903224651 | 95 | 97 | 4.0 | 11.0 | 0.00 | 0.00 | 0.00 | 50 | 1007.3 |
| 20260903223639 | 96 | 121 | 6.0 | 13.0 | 0.00 | 0.00 | 0.00 | 50 | 1007.2 |
| 20260903222624 | 96 | 134 | 7.0 | 17.0 | 0.00 | 0.00 | 0.00 | 48 | 1007.3 |
| 20260903220522 | 98 | 166 | 5.0 | 14.0 | 0.00 | 0.00 | 0.00 | 44 | 1007.0 |
| 20260903215539 | 99 | 142 | 4.0 | 14.0 | 0.00 | 0.00 | 0.00 | 43 | 1006.9 |
| 20260903214540 | 99 | 172 | 4.0 | 10.0 | 0.00 | 0.00 | 0.00 | 42 | 1007.0 |
| 20260903213530 | 99 | 218 | 4.0 | 14.0 | 0.00 | 0.00 | 0.00 | 42 | 1007.1 |
| 20260903212513 | 99 | 139 | 4.0 | 14.0 | 0.00 | 0.00 | 0.00 | 42 | 1007.2 |
| 20260903211506 | 100 | 129 | 3.0 | 10.0 | 0.00 | 0.00 | 0.00 | 40 | 1007.2 |
| 20260903210518 | 101 | 165 | 2.0 | 11.0 | 0.00 | 0.00 | 0.00 | 39 | 1007.3 |
| 20260903204321 | 101 | 224 | 4.0 | 13.0 | 0.00 | 0.00 | 0.00 | 42 | 1007.7 |
| 20260903203342 | 101 | 65 | 4.0 | 11.0 | 0.00 | 0.00 | 0.00 | 41 | 1007.8 |
| 20260903202324 | 102 | 178 | 2.0 | 10.0 | 0.00 | 0.00 | 0.00 | 40 | 1007.9 |
| 20260903201307 | 102 | 196 | 3.0 | 10.0 | 0.00 | 0.00 | 0.00 | 40 | 1008.1 |
| 20260903200327 | 101 | 197 | 2.0 | 8.0 | 0.00 | 0.00 | 0.00 | 39 | 1008.1 |
| 20260903195330 | 101 | 261 | 3.0 | 10.0 | 0.00 | 0.00 | 0.00 | 41 | 1008.1 |
| 20260903194323 | 100 | 191 | 4.0 | 10.0 | 0.00 | 0.00 | 0.00 | 42 | 1008.2 |
| 20260903193249 | 101 | 151 | 2.0 | 9.0 | 0.00 | 0.00 | 0.00 | 42 | 1008.4 |
| 20260903192229 | 100 | 205 | 3.0 | 9.0 | 0.00 | 0.00 | 0.00 | 44 | 1008.7 |
| 20260903190138 | 99 | 167 | 2.0 | 12.0 | 0.00 | 0.00 | 0.00 | 44 | 1009.0 |
| 20260903185105 | 99 | 192 | 4.0 | 12.0 | 0.00 | 0.00 | 0.00 | 45 | 1009.2 |
| 20260903184040 | 99 | 215 | 4.0 | 10.0 | 0.00 | 0.00 | 0.00 | 46 | 1009.3 |
| 20260903183036 | 98 | 205 | 4.0 | 11.0 | 0.00 | 0.00 | 0.00 | 47 | 1009.4 |
| 20260903182039 | 98 | 165 | 4.0 | 11.0 | 0.00 | 0.00 | 0.00 | 47 | 1009.6 |
| 20260903181023 | 98 | 197 | 2.0 | 10.0 | 0.00 | 0.00 | 0.00 | 47 | 1009.7 |
| 20260903180042 | 97 | 208 | 3.0 | 15.0 | 0.00 | 0.00 | 0.00 | 46 | 1009.8 |
| 20260903175047 | 97 | 166 | 4.0 | 15.0 | 0.00 | 0.00 | 0.00 | 49 | 1009.9 |
| 20260903174107 | 96 | 163 | 5.0 | 15.0 | 0.00 | 0.00 | 0.00 | 49 | 1009.8 |
| 20260903173123 | 96 | 155 | 2.0 | 10.0 | 0.00 | 0.00 | 0.00 | 51 | 1010.0 |
| 20260903171006 | 95 | 173 | 4.0 | 12.0 | 0.00 | 0.00 | 0.00 | 52 | 1010.3 |
| 20260903170022 | 95 | 200 | 3.0 | 7.0 | 0.00 | 0.00 | 0.00 | 53 | 1010.5 |
| 20260903165034 | 94 | 246 | 3.0 | 11.0 | 0.00 | 0.00 | 0.00 | 54 | 1010.5 |
| 20260903164040 | 93 | 196 | 4.0 | 15.0 | 0.00 | 0.00 | 0.00 | 56 | 1010.6 |
| 20260903161909 | 92 | 219 | 4.0 | 12.0 | 0.00 | 0.00 | 0.00 | 57 | 1010.6 |
| 20260903160932 | 91 | 202 | 2.0 | 10.0 | 0.00 | 0.00 | 0.00 | 59 | 1010.6 |
| 20260903155931 | 91 | 231 | 4.0 | 13.0 | 0.00 | 0.00 | 0.00 | 59 | 1010.6 |
| 20260903153739 | 89 | 184 | 3.0 | 14.0 | 0.00 | 0.00 | 0.00 | 64 | 1010.6 |
| 20260903152753 | 88 | 255 | 4.0 | 14.0 | 0.00 | 0.00 | 0.00 | 65 | 1010.5 |
| 20260903150641 | 87 | 218 | 3.0 | 14.0 | 0.00 | 0.00 | 0.00 | 68 | 1010.5 |
| 20260903144525 | 85 | 173 | 3.0 | 9.0 | 0.00 | 0.00 | 0.00 | 72 | 1010.4 |
| 20260903142356 | 84 | 214 | 3.0 | 15.0 | 0.00 | 0.00 | 0.00 | 75 | 1010.4 |
| 20260903141419 | 84 | 151 | 4.0 | 12.0 | 0.00 | 0.00 | 0.00 | 77 | 1010.4 |
| 20260903140426 | 83 | 234 | 4.0 | 14.0 | 0.00 | 0.00 | 0.00 | 78 | 1010.4 |
| 20260903133207 | 81 | 215 | 3.0 | 13.0 | 0.00 | 0.00 | 0.00 | 83 | 1010.6 |
| 20260903131059 | 81 | 210 | 4.0 | 13.0 | 0.00 | 0.00 | 0.00 | 84 | 1010.6 |
| 20260903130048 | 81 | 213 | 3.0 | 13.0 | 0.00 | 0.00 | 0.00 | 84 | 1010.5 |
| 20260903125026 | 80 | 175 | 5.0 | 13.0 | 0.00 | 0.00 | 0.00 | 85 | 1010.4 |
| 20260903123952 | 80 | 165 | 3.0 | 14.0 | 0.00 | 0.00 | 0.00 | 85 | 1010.5 |
| 20260903122930 | 80 | 186 | 4.0 | 14.0 | 0.00 | 0.00 | 0.00 | 85 | 1010.4 |